Home > Time Zones > World Clock > Weather > France > Caen > Past weeks

Flag for France Weather past 2 weeks in Caen, France

Now
57 °F

Clear.


Feels Like: 57 °F
Forecast: 54 / 70 °F
Wind: 3 mph from West

Location: Caen Airport

Current Time: Sep 30, 2014 at 10:41:21 PM

Latest Report: Sep 30, 2014 at 10:00 PM


Visibility: N/A

Pressure: 30.30 "Hg

Humidity: 82%

Dew point: 52 °F

Location of CaenLocation

Historic Weather in Caen — Graph

°F

Caen temperature yesterday

Maximum temperature yesterday: 70 °F (at 4:30 PM)
Minimum temperature yesterday: 59 °F (at 1:00 AM)
Average temperature yesterday: 63 °F

Past Weeks' High & Low Weather Summary

 TemperatureHumidityPressure
High81 °F (Sep 17, 3:30 PM)100% (Sep 16, 6:30 AM)30.33 "Hg (Sep 16, 6:30 AM)
Low43 °F (Sep 23, 6:00 AM)42% (Sep 16, 4:30 PM)29.71 "Hg (Sep 17, 3:00 PM)
Average62 °F79%30.07 "Hg
* Reported Sep 15 9:00 PM — Sep 30 9:30 PM, Caen, Weather by CustomWeather, © 2014

Note: Actual official high and low records may vary slightly from our data, if they occured in-between our weather recording intervals... More about our weather records

Advertising

Caen weather history for previous 24 hours

 ConditionsComfort  
Time TempWeatherWind HumidityBarometerVisibility
9:30 PM
Sep 30
57 °FClear.3 mph82%30.30 "HgN/A
9:00 PM61 °FClear.5 mph77%30.30 "HgN/A
8:30 PM61 °FClear.5 mph77%30.27 "HgN/A
8:00 PM63 °FClear.5 mph73%30.27 "HgN/A
7:30 PM64 °FClear.5 mph68%30.27 "HgN/A
7:00 PM68 °FClear.7 mph60%30.27 "HgN/A
6:30 PM70 °FClear.9 mph57%30.27 "HgN/A
6:00 PM70 °FClear.8 mph57%30.27 "HgN/A
5:30 PM70 °FPassing clouds.9 mph57%30.27 "HgN/A
5:00 PM72 °FClear.10 mph53%30.27 "HgN/A
4:30 PM72 °FPassing clouds.10 mph57%30.27 "HgN/A
4:00 PM72 °FPassing clouds.12 mph57%30.27 "HgN/A
3:30 PM72 °FPassing clouds.9 mph57%30.27 "HgN/A
3:00 PM72 °FScattered clouds.10 mph57%30.27 "HgN/A
2:30 PM72 °FPartly sunny.10 mph57%30.27 "HgN/A
2:00 PM72 °FPassing clouds.9 mph57%30.30 "HgN/A
1:30 PM70 °FClear.8 mph60%30.30 "HgN/A
1:00 PM68 °FClear.7 mph64%30.30 "HgN/A
12:30 PM68 °FPassing clouds.8 mph64%30.30 "HgN/A
12:00 PM66 °FPassing clouds.7 mph73%30.30 "HgN/A
11:30 AM64 °FPartly sunny.9 mph78%30.30 "HgN/A
11:00 AM63 °FPartly sunny.8 mph83%30.30 "HgN/A
10:30 AM61 °FPartly sunny.6 mph88%30.30 "HgN/A
10:00 AM59 °FLow clouds.6 mph94%30.27 "Hg6 mi
9:30 AM59 °FLow clouds.8 mph94%30.27 "Hg5 mi
9:00 AM59 °FLow clouds.12 mph94%30.27 "Hg4 mi
8:30 AM59 °FLow clouds.9 mph94%30.27 "Hg4 mi
8:00 AM59 °FFog.5 mph94%30.24 "Hg3 mi
7:30 AM57 °FFog.6 mph100%30.24 "Hg3 mi
7:00 AM55 °FFog.8 mph100%30.24 "Hg2 mi
6:30 AM54 °FFog.10 mph100%30.24 "Hg2 mi
6:00 AM54 °FFog.5 mph94%30.24 "Hg2 mi
5:30 AM52 °FFog.5 mph100%30.24 "Hg1 mi
5:00 AM54 °FFog.5 mph94%30.24 "Hg1 mi
4:30 AM54 °FFog.5 mph100%30.24 "Hg3 mi
4:00 AM55 °FFog.3 mph94%30.21 "Hg3 mi
3:30 AM55 °FFog.2 mph94%30.24 "Hg2 mi
3:00 AM54 °FFog.3 mph94%30.21 "Hg1 mi
2:30 AM55 °FFog.2 mph94%30.21 "Hg1 mi
2:00 AM55 °FFog.2 mph100%30.21 "Hg2 mi
1:30 AM55 °FClear.2 mph94%30.21 "Hg4 mi
1:00 AM55 °FClear.2 mph94%30.21 "Hg4 mi
12:30 AM57 °FClear.2 mph94%30.21 "Hg6 mi
12:00 AM57 °FPassing clouds.3 mph88%30.21 "Hg5 mi
11:30 PM
Sep 29
59 °FPassing clouds.1 mph88%30.21 "Hg6 mi
11:00 PM59 °FPassing clouds.1 mph88%30.21 "Hg4 mi
10:30 PM59 °FFog.2 mph88%30.21 "Hg1 mi
10:00 PM59 °FClear.5 mph88%30.21 "Hg4 mi
Weather by CustomWeather, © 2014

See weather overviewHow to use our weather pages